TimeCDT,TemperatureF,Dew PointF,Humidity,Sea Level PressureIn,VisibilityMPH,Wind Direction,Wind SpeedMPH,Gust SpeedMPH,PrecipitationIn,Events,Conditions,WindDirDegrees,DateUTC
12:15 AM,24.8,19.4,80,30.21,10.0,Calm,Calm,-,N/A,,Clear,0,2012-10-07 05:15:00
12:35 AM,26.6,19.4,74,30.21,10.0,SW,3.5,-,N/A,,Clear,220,2012-10-07 05:35:00
12:55 AM,26.6,21.2,80,30.20,10.0,Calm,Calm,-,N/A,,Clear,0,2012-10-07 05:55:00
1:15 AM,26.6,21.2,80,30.19,10.0,Calm,Calm,-,N/A,,Clear,0,2012-10-07 06:15:00
1:35 AM,26.6,21.2,80,30.19,10.0,Calm,Calm,-,N/A,,Clear,0,2012-10-07 06:35:00
1:55 AM,24.8,19.4,80,30.19,10.0,Calm,Calm,-,N/A,,Clear,0,2012-10-07 06:55:00
2:15 AM,24.8,19.4,80,30.18,10.0,Calm,Calm,-,N/A,,Clear,0,2012-10-07 07:15:00
2:55 AM,24.8,19.4,80,30.17,10.0,Calm,Calm,-,N/A,,Clear,0,2012-10-07 07:55:00
3:15 AM,24.8,19.4,80,30.16,10.0,Calm,Calm,-,N/A,,Clear,0,2012-10-07 08:15:00
3:35 AM,23.0,19.4,86,30.16,10.0,Calm,Calm,-,N/A,,Clear,0,2012-10-07 08:35:00
3:55 AM,24.8,19.4,80,30.15,10.0,SW,3.5,-,N/A,,Clear,220,2012-10-07 08:55:00
4:15 AM,26.6,21.2,80,30.14,10.0,SW,4.6,-,N/A,,Clear,230,2012-10-07 09:15:00
4:35 AM,26.6,21.2,80,30.14,10.0,SW,6.9,-,N/A,,Clear,220,2012-10-07 09:35:00
5:15 AM,26.6,21.2,80,30.13,10.0,SSW,5.8,-,N/A,,Clear,210,2012-10-07 10:15:00
5:35 AM,26.6,21.2,80,30.12,10.0,SSW,8.1,-,N/A,,Clear,210,2012-10-07 10:35:00
5:55 AM,26.6,21.2,80,30.12,10.0,SW,5.8,-,N/A,,Clear,220,2012-10-07 10:55:00
6:15 AM,26.6,21.2,80,30.12,10.0,SSW,8.1,-,N/A,,Clear,210,2012-10-07 11:15:00
6:35 AM,28.4,21.2,74,30.11,10.0,SSW,6.9,-,N/A,,Clear,210,2012-10-07 11:35:00
6:55 AM,28.4,21.2,74,30.11,10.0,SW,5.8,-,N/A,,Clear,220,2012-10-07 11:55:00
7:15 AM,26.6,19.4,74,30.10,10.0,SSW,3.5,-,N/A,,Clear,200,2012-10-07 12:15:00
7:35 AM,26.6,19.4,74,30.10,10.0,SSW,4.6,-,N/A,,Clear,210,2012-10-07 12:35:00
7:55 AM,26.6,21.2,80,30.09,10.0,SSW,4.6,-,N/A,,Clear,210,2012-10-07 12:55:00
8:15 AM,28.4,21.2,74,30.09,10.0,SW,8.1,-,N/A,,Clear,220,2012-10-07 13:15:00
8:35 AM,28.4,21.2,74,30.09,10.0,SSW,8.1,-,N/A,,Clear,210,2012-10-07 13:35:00
8:55 AM,32.0,21.2,64,30.09,10.0,SW,8.1,-,N/A,,Clear,220,2012-10-07 13:55:00
9:15 AM,32.0,21.2,64,30.08,10.0,SW,8.1,-,N/A,,Clear,220,2012-10-07 14:15:00
9:35 AM,35.6,23.0,60,30.08,10.0,SW,12.7,-,N/A,,Clear,220,2012-10-07 14:35:00
9:55 AM,37.4,23.0,56,30.08,10.0,SW,11.5,17.3,N/A,,Clear,220,2012-10-07 14:55:00
10:15 AM,41.0,23.0,49,30.07,10.0,SW,15.0,19.6,N/A,,Clear,220,2012-10-07 15:15:00
10:35 AM,41.0,23.0,49,30.06,10.0,SW,13.8,-,N/A,,Clear,220,2012-10-07 15:35:00
10:55 AM,41.0,21.2,45,30.06,10.0,SW,13.8,-,N/A,,Clear,230,2012-10-07 15:55:00
11:15 AM,42.8,23.0,46,30.05,10.0,SW,16.1,21.9,N/A,,Clear,230,2012-10-07 16:15:00
11:35 AM,44.6,23.0,43,30.05,10.0,SSW,13.8,18.4,N/A,,Clear,210,2012-10-07 16:35:00
11:55 AM,44.6,21.2,39,30.04,10.0,SW,12.7,19.6,N/A,,Clear,220,2012-10-07 16:55:00
12:15 PM,46.4,19.4,34,30.03,10.0,SSW,15.0,23.0,N/A,,Clear,210,2012-10-07 17:15:00
12:35 PM,48.2,19.4,32,30.02,10.0,SSW,16.1,21.9,N/A,,Clear,210,2012-10-07 17:35:00
12:55 PM,50.0,19.4,30,30.01,10.0,SSW,16.1,-,N/A,,Clear,210,2012-10-07 17:55:00
1:15 PM,46.4,19.4,34,30.00,10.0,SSW,11.5,21.9,N/A,,Clear,200,2012-10-07 18:15:00
1:35 PM,50.0,17.6,28,29.99,10.0,SSW,15.0,19.6,N/A,,Clear,210,2012-10-07 18:35:00
1:55 PM,50.0,17.6,28,29.97,10.0,SSW,11.5,24.2,N/A,,Clear,200,2012-10-07 18:55:00
2:35 PM,51.8,17.6,26,29.95,10.0,SW,15.0,21.9,N/A,,Clear,230,2012-10-07 19:35:00
2:55 PM,50.0,17.6,28,29.94,10.0,SSW,12.7,-,N/A,,Clear,210,2012-10-07 19:55:00
3:15 PM,51.8,17.6,26,29.92,10.0,SSW,15.0,19.6,N/A,,Scattered Clouds,210,2012-10-07 20:15:00
3:35 PM,53.6,15.8,22,29.92,10.0,WSW,11.5,24.2,N/A,,Scattered Clouds,240,2012-10-07 20:35:00
3:55 PM,53.6,15.8,22,29.91,10.0,SW,16.1,19.6,N/A,,Scattered Clouds,230,2012-10-07 20:55:00
4:15 PM,53.6,17.6,24,29.91,10.0,WSW,15.0,20.7,N/A,,Scattered Clouds,250,2012-10-07 21:15:00
4:35 PM,51.8,17.6,26,29.90,10.0,WSW,12.7,18.4,N/A,,Scattered Clouds,240,2012-10-07 21:35:00
4:55 PM,53.6,17.6,24,29.89,10.0,WSW,10.4,18.4,N/A,,Mostly Cloudy,240,2012-10-07 21:55:00
5:15 PM,51.8,17.6,26,29.89,10.0,WSW,13.8,18.4,N/A,,Scattered Clouds,250,2012-10-07 22:15:00
5:55 PM,51.8,17.6,26,29.88,10.0,WSW,8.1,-,N/A,,Scattered Clouds,240,2012-10-07 22:55:00
6:15 PM,50.0,17.6,28,29.88,10.0,SW,8.1,-,N/A,,Scattered Clouds,230,2012-10-07 23:15:00
6:35 PM,46.4,17.6,32,29.87,10.0,SW,5.8,-,N/A,,Clear,220,2012-10-07 23:35:00
6:55 PM,44.6,17.6,34,29.87,10.0,SSW,4.6,-,N/A,,Clear,200,2012-10-07 23:55:00
7:15 PM,41.0,15.8,36,29.87,10.0,South,5.8,-,N/A,,Clear,180,2012-10-08 00:15:00
7:35 PM,41.0,15.8,36,29.87,10.0,South,4.6,-,N/A,,Clear,180,2012-10-08 00:35:00
7:55 PM,37.4,15.8,41,29.87,10.0,South,4.6,-,N/A,,Clear,180,2012-10-08 00:55:00
8:15 PM,37.4,15.8,41,29.86,10.0,SSE,5.8,-,N/A,,Clear,160,2012-10-08 01:15:00
8:35 PM,37.4,15.8,41,29.86,10.0,SSE,5.8,-,N/A,,Clear,160,2012-10-08 01:35:00
8:55 PM,37.4,15.8,41,29.86,10.0,South,5.8,-,N/A,,Clear,170,2012-10-08 01:55:00
9:15 PM,37.4,15.8,41,29.86,10.0,SSE,4.6,-,N/A,,Clear,160,2012-10-08 02:15:00
9:35 PM,35.6,15.8,44,29.85,10.0,SSE,4.6,-,N/A,,Clear,160,2012-10-08 02:35:00
9:55 PM,35.6,15.8,44,29.85,10.0,SSE,4.6,-,N/A,,Clear,150,2012-10-08 02:55:00
10:15 PM,33.8,17.6,52,29.84,10.0,SSE,4.6,-,N/A,,Clear,150,2012-10-08 03:15:00
10:35 PM,33.8,17.6,52,29.83,10.0,SSE,5.8,-,N/A,,Clear,150,2012-10-08 03:35:00
10:55 PM,33.8,17.6,52,29.83,10.0,SSE,3.5,-,N/A,,Clear,150,2012-10-08 03:55:00
11:15 PM,33.8,17.6,52,29.82,10.0,SSE,4.6,-,N/A,,Clear,160,2012-10-08 04:15:00
11:35 PM,33.8,19.4,56,29.82,10.0,SE,4.6,-,N/A,,Clear,140,2012-10-08 04:35:00
11:55 PM,35.6,19.4,52,29.81,10.0,SSE,4.6,-,N/A,,Clear,160,2012-10-08 04:55:00